Weather History for Piney Island, NC

Change the Weather History Date:

Saturday, November 24, 2012

  Actual Average (KMRH) Record (KMRH)
Temperature  
Mean Temperature 50 °F -  
Max Temperature 55 °F 64 °F 77 °F (1983)
Min Temperature 43 °F 43 °F 23 °F (1970)
Degree Days  
Heating Degree Days 15    
Moisture  
Dew Point 35 °F    
Average Humidity 57    
Maximum Humidity 83    
Minimum Humidity 43    
Precipitation  
Precipitation 0.00 in - - ()
Sea Level Pressure  
Sea Level Pressure 29.97 in    
Wind  
Wind Speed 10 mph (NW)    
Max Wind Speed 17 mph    
Max Gust Speed 25 mph    
Visibility 10 miles    
Events      
Averages and records for this station are not official NWS values.
T = Trace of Precipitation, MM = Missing Value Source: NWS Daily Summary

Daily Weather History Graph

Daily Weather History Graph

Search for Another Location

Airport:

Trip Planner

Search our weather history database for the weather conditions in past years. The results will help you decide how hot, cold, wet, or windy it might be!

Date:

Astronomy

Nov. 24, 2012 Rise Set
Actual Time 6:49 AM EST 4:55 PM EST
Civil Twilight 6:22 AM EST 5:23 PM EST
Nautical Twilight 5:51 AM EST 5:54 PM EST
Astronomical Twilight 5:20 AM EST 6:24 PM EST
Moon 2:33 PM EST (11/24) 3:10 AM EST (11/24)
Length of Visible Light 11h 01m
Length of Day
10h 06m
Waxing Gibbous, 87% of the Moon is Illuminated
Nov 24
Waxing Gibbous
Nov 28
Full
Dec 6
Last Quarter
Dec 13
New
Dec 20
First Quarter

Hourly Weather History & Observations

Time (EST) Temp. Windchill Dew Point Humidity Pressure Visibility Wind Dir Wind Speed Gust Speed Precip Events Conditions
12:56 AM 53.1 °F - 48.0 °F 83% 29.85 in 10.0 mi SW 5.8 mph - N/A   Clear
1:56 AM 55.0 °F - 48.0 °F 77% 29.85 in 6.0 mi West 10.4 mph - N/A   Haze
2:56 AM 54.0 °F - 46.0 °F 75% 29.85 in 5.0 mi West 8.1 mph - N/A   Haze
3:56 AM 53.1 °F - 43.0 °F 69% 29.85 in 9.0 mi NW 10.4 mph - N/A   Scattered Clouds
4:56 AM 53.1 °F - 41.0 °F 64% 29.87 in 10.0 mi NW 10.4 mph - N/A   Overcast
5:56 AM 52.0 °F - 37.0 °F 57% 29.90 in 10.0 mi NW 12.7 mph - N/A   Partly Cloudy
6:56 AM 50.0 °F - 35.1 °F 57% 29.93 in 10.0 mi NW 12.7 mph 20.7 mph N/A   Clear
7:56 AM 50.0 °F - 35.1 °F 57% 29.95 in 10.0 mi NW 13.8 mph - N/A   Clear
8:56 AM 51.1 °F - 34.0 °F 52% 29.96 in 10.0 mi NNW 15.0 mph 25.3 mph N/A   Clear
9:56 AM 51.1 °F - 33.1 °F 50% 29.97 in 10.0 mi NNW 17.3 mph 24.2 mph N/A   Clear
10:56 AM 51.1 °F - 33.1 °F 50% 29.97 in 10.0 mi NNW 16.1 mph 20.7 mph N/A   Clear
11:56 AM 52.0 °F - 32.0 °F 47% 29.96 in 10.0 mi NW 15.0 mph - N/A   Clear
1:56 PM 52.0 °F - 30.9 °F 45% 29.94 in 10.0 mi NNW 10.4 mph - N/A   Clear
2:56 PM 53.1 °F - 30.9 °F 43% 29.94 in 10.0 mi NNW 8.1 mph - N/A   Clear
3:56 PM 51.1 °F - 34.0 °F 52% 29.96 in 10.0 mi North 8.1 mph - N/A   Clear
4:56 PM 48.9 °F - 30.9 °F 50% 29.99 in 10.0 mi NW 9.2 mph - N/A   Partly Cloudy
5:56 PM 48.0 °F - 30.9 °F 52% 30.02 in 10.0 mi NW 9.2 mph - N/A   Clear
6:56 PM 46.9 °F - 32.0 °F 56% 30.04 in 10.0 mi NW 8.1 mph - N/A   Clear
7:56 PM 46.0 °F 41.9 °F 32.0 °F 58% 30.06 in 10.0 mi NW 8.1 mph - N/A   Clear
8:56 PM 46.0 °F 41.0 °F 30.9 °F 56% 30.07 in 10.0 mi NW 10.4 mph - N/A   Clear
9:56 PM 46.0 °F 41.0 °F 28.0 °F 50% 30.09 in 10.0 mi NNW 10.4 mph - N/A   Clear
10:56 PM 45.0 °F 38.2 °F 27.0 °F 49% 30.10 in 10.0 mi NW 15.0 mph 21.9 mph N/A   Clear
11:56 PM 43.0 °F 35.7 °F 26.1 °F 51% 30.10 in 10.0 mi NNW 15.0 mph 20.7 mph N/A   Clear